TimeEST,TemperatureF,Dew PointF,Humidity,Sea Level PressureIn,VisibilityMPH,Wind Direction,Wind SpeedMPH,Gust SpeedMPH,PrecipitationIn,Events,Conditions,WindDirDegrees,DateUTC
12:15 AM,20.1,16.7,87,30.39,5.0,Calm,Calm,-,N/A,,Clear,0,2013-01-15 05:15:00
12:36 AM,19.9,16.9,88,30.39,10.0,Calm,Calm,-,N/A,,Clear,0,2013-01-15 05:36:00
12:55 AM,19.4,16.5,89,30.39,10.0,Calm,Calm,-,N/A,,Clear,0,2013-01-15 05:55:00
1:15 AM,19.4,16.2,87,30.39,7.0,Calm,Calm,-,N/A,,Clear,0,2013-01-15 06:15:00
1:36 AM,19.2,16.2,88,30.40,10.0,Calm,Calm,-,N/A,,Clear,0,2013-01-15 06:36:00
1:55 AM,18.9,15.8,88,30.40,10.0,Calm,Calm,-,N/A,,Clear,0,2013-01-15 06:55:00
2:15 AM,18.9,15.8,88,30.40,10.0,Calm,Calm,-,N/A,,Clear,0,2013-01-15 07:15:00
2:35 AM,18.9,15.8,88,30.40,10.0,Calm,Calm,-,N/A,,Clear,0,2013-01-15 07:35:00
2:55 AM,18.3,15.3,88,30.41,7.0,Calm,Calm,-,N/A,,Clear,0,2013-01-15 07:55:00
3:16 AM,18.5,15.3,87,30.40,7.0,Calm,Calm,-,N/A,,Clear,0,2013-01-15 08:16:00
3:35 AM,18.5,15.4,88,30.40,7.0,Calm,Calm,-,N/A,,Clear,0,2013-01-15 08:35:00
3:55 AM,18.1,15.1,88,30.40,10.0,Calm,Calm,-,N/A,,Clear,0,2013-01-15 08:55:00
4:15 AM,17.6,14.5,88,30.40,10.0,Calm,Calm,-,N/A,,Clear,0,2013-01-15 09:15:00
4:35 AM,17.6,14.2,86,30.40,7.0,Calm,Calm,-,N/A,,Clear,0,2013-01-15 09:35:00
4:56 AM,18.0,14.5,86,30.40,7.0,Calm,Calm,-,N/A,,Clear,0,2013-01-15 09:56:00
5:15 AM,17.6,14.5,88,30.40,7.0,Calm,Calm,-,N/A,,Clear,0,2013-01-15 10:15:00
5:56 AM,17.1,13.8,87,30.40,7.0,Calm,Calm,-,N/A,,Clear,0,2013-01-15 10:56:00
6:15 AM,16.7,13.5,87,30.40,10.0,Calm,Calm,-,N/A,,Clear,0,2013-01-15 11:15:00
6:35 AM,16.7,13.5,87,30.41,10.0,Calm,Calm,-,N/A,,Clear,0,2013-01-15 11:35:00
6:55 AM,16.5,13.1,86,30.41,10.0,Calm,Calm,-,N/A,,Clear,0,2013-01-15 11:55:00
7:15 AM,16.2,12.9,87,30.42,7.0,Calm,Calm,-,N/A,,Clear,0,2013-01-15 12:15:00
7:36 AM,16.7,13.5,87,30.41,7.0,Calm,Calm,-,N/A,,Clear,0,2013-01-15 12:36:00
7:55 AM,16.2,12.9,87,30.40,7.0,Calm,Calm,-,N/A,,Clear,0,2013-01-15 12:55:00
8:15 AM,16.2,12.9,87,30.42,7.0,Calm,Calm,-,N/A,,Clear,0,2013-01-15 13:15:00
8:36 AM,17.1,13.6,86,30.42,7.0,Calm,Calm,-,N/A,,Clear,0,2013-01-15 13:36:00
8:55 AM,18.5,14.9,86,30.43,7.0,Calm,Calm,-,N/A,,Clear,0,2013-01-15 13:55:00
9:15 AM,19.4,16.2,87,30.43,5.0,Calm,Calm,-,N/A,,Clear,0,2013-01-15 14:15:00
9:35 AM,21.7,18.5,87,30.43,7.0,Calm,Calm,-,N/A,,Clear,0,2013-01-15 14:35:00
9:55 AM,22.8,18.5,83,30.42,10.0,Calm,Calm,-,N/A,,Clear,0,2013-01-15 14:55:00
10:15 AM,23.7,18.3,80,30.41,10.0,Calm,Calm,-,N/A,,Clear,0,2013-01-15 15:15:00
10:35 AM,25.2,19.0,78,30.40,10.0,Calm,Calm,-,N/A,,Clear,0,2013-01-15 15:35:00
10:55 AM,26.6,19.9,76,30.41,10.0,East,4.6,-,N/A,,Clear,80,2013-01-15 15:55:00
11:15 AM,27.5,20.1,74,30.41,10.0,Calm,Calm,-,N/A,,Clear,0,2013-01-15 16:15:00
11:35 AM,28.8,19.8,69,30.41,10.0,SE,3.5,-,N/A,,Clear,130,2013-01-15 16:35:00
11:56 AM,29.7,19.4,66,30.40,10.0,ESE,5.8,-,N/A,,Scattered Clouds,110,2013-01-15 16:56:00
12:15 PM,29.8,17.6,60,30.39,10.0,East,4.6,-,N/A,,Scattered Clouds,80,2013-01-15 17:15:00
12:35 PM,29.8,17.2,59,30.37,10.0,ENE,5.8,-,N/A,,Scattered Clouds,60,2013-01-15 17:35:00
12:55 PM,29.7,16.3,58,30.34,10.0,East,6.9,-,N/A,,Clear,80,2013-01-15 17:55:00
1:15 PM,30.4,18.1,60,30.34,10.0,East,3.5,-,N/A,,Clear,80,2013-01-15 18:15:00
1:36 PM,30.2,17.4,59,30.35,10.0,SE,6.9,-,N/A,,Scattered Clouds,130,2013-01-15 18:36:00
1:55 PM,30.2,18.0,60,30.34,10.0,ESE,8.1,-,N/A,,Scattered Clouds,120,2013-01-15 18:55:00
2:15 PM,30.0,16.5,57,30.33,10.0,ENE,4.6,-,N/A,,Clear,70,2013-01-15 19:15:00
2:35 PM,30.6,16.5,56,30.31,10.0,ESE,5.8,-,N/A,,Clear,110,2013-01-15 19:35:00
2:55 PM,30.2,16.7,57,30.31,10.0,ENE,4.6,-,N/A,,Clear,70,2013-01-15 19:55:00
3:15 PM,29.3,15.8,57,30.31,10.0,ENE,4.6,-,N/A,,Clear,70,2013-01-15 20:15:00
3:35 PM,29.3,16.5,59,30.31,10.0,East,5.8,-,N/A,,Clear,100,2013-01-15 20:35:00
3:55 PM,29.3,16.9,60,30.32,10.0,ESE,5.8,-,N/A,,Clear,110,2013-01-15 20:55:00
4:15 PM,28.9,17.4,62,30.30,10.0,ENE,4.6,-,N/A,,Clear,70,2013-01-15 21:15:00
4:35 PM,28.6,17.4,63,30.30,10.0,East,4.6,-,N/A,,Clear,100,2013-01-15 21:35:00
4:55 PM,28.6,17.1,62,30.31,10.0,ESE,4.6,-,N/A,,Mostly Cloudy,110,2013-01-15 21:55:00
5:15 PM,28.4,16.7,62,30.30,10.0,East,3.5,-,N/A,,Overcast,100,2013-01-15 22:15:00
5:35 PM,28.4,17.1,63,30.28,10.0,ESE,3.5,-,N/A,,Overcast,110,2013-01-15 22:35:00
5:56 PM,28.4,16.3,61,30.29,10.0,Calm,Calm,-,N/A,,Scattered Clouds,0,2013-01-15 22:56:00
6:15 PM,28.4,16.9,62,30.28,10.0,Calm,Calm,-,N/A,,Clear,0,2013-01-15 23:15:00
6:35 PM,28.4,16.9,62,30.28,10.0,Calm,Calm,-,N/A,,Scattered Clouds,0,2013-01-15 23:35:00
6:56 PM,28.2,16.9,63,30.27,10.0,Calm,Calm,-,N/A,,Scattered Clouds,0,2013-01-15 23:56:00
7:15 PM,28.2,17.2,63,30.27,10.0,Calm,Calm,-,N/A,,Clear,0,2013-01-16 00:15:00
7:35 PM,28.2,18.9,68,30.26,10.0,North,3.5,-,N/A,,Clear,350,2013-01-16 00:35:00
7:55 PM,28.0,18.5,67,30.25,10.0,Calm,Calm,-,N/A,,Clear,0,2013-01-16 00:55:00
8:15 PM,28.0,19.0,69,30.24,10.0,Calm,Calm,-,N/A,,Clear,0,2013-01-16 01:15:00
8:35 PM,27.9,18.1,67,30.23,10.0,Calm,Calm,-,N/A,,Clear,0,2013-01-16 01:35:00
8:55 PM,28.0,17.8,65,30.23,10.0,Calm,Calm,-,N/A,,Clear,0,2013-01-16 01:55:00
9:15 PM,28.0,17.8,65,30.22,10.0,Calm,Calm,-,N/A,,Clear,0,2013-01-16 02:15:00
9:35 PM,27.9,18.5,68,30.21,10.0,NNE,4.6,-,N/A,,Clear,30,2013-01-16 02:35:00
9:55 PM,27.5,18.9,70,30.20,10.0,NNE,3.5,-,N/A,,Scattered Clouds,20,2013-01-16 02:55:00
10:16 PM,27.3,19.4,72,30.18,10.0,Calm,Calm,-,N/A,,Scattered Clouds,0,2013-01-16 03:16:00
10:35 PM,27.1,19.6,73,30.18,10.0,NNE,3.5,-,N/A,,Scattered Clouds,20,2013-01-16 03:35:00
10:55 PM,26.8,19.4,74,30.16,10.0,Calm,Calm,-,N/A,,Clear,0,2013-01-16 03:55:00
11:15 PM,26.4,19.4,75,30.15,10.0,Calm,Calm,-,N/A,,Clear,0,2013-01-16 04:15:00
11:35 PM,25.9,19.6,77,30.15,10.0,Calm,Calm,-,N/A,,Clear,0,2013-01-16 04:35:00
11:55 PM,25.5,19.6,78,30.13,10.0,Calm,Calm,-,N/A,,Clear,0,2013-01-16 04:55:00